Regional Weather Roundup
Issued by NWS

Home | Current Version | Previous Version | Graphics & Text | Print | Product List | Glossary Off
Versions: 1 2 3 4 5 6 7 8 9 10 11 12 13 14 15 16 17 18 19 20 21 22 23 24 25 26 27 28 29 30 31 32 33 34 35 36 37 38 39 40 41 42 43 44 45 46 47

000
ASUS43 KDMX 290607
RWRIA

WEATHER ROUNDUP FOR IOWA
NATIONAL WEATHER SERVICE DES MOINES IA
100 AM CDT SAT AUG 29 2015

NOTE: "FAIR" INDICATES FEW OR NO CLOUDS BELOW 12,000 FEET WITH NO
SIGNIFICANT WEATHER AND/OR OBSTRUCTIONS TO VISIBILITY.

* - THESE STATIONS ARE NOT NWS STATIONS...THUS NOT UNDER NWS
QUALITY CONTROL.  THEY ALSO DO NOT REPORT WEATHER SUCH
AS PRECIPITATION OR FOG.

IAZ001>003-012>014-020>022-031>034-043>046-290700-
   NORTHWEST IOWA

CITY           SKY/WX    TMP DP  RH WIND       PRES   REMARKS
CARROLL *      CLOUDY    61  61 100 N12G17    29.96S FOG
CHEROKEE *     CLOUDY    60  59  99 N7        30.00R
DENISON *      CLOUDY    61  59  94 N9G15     29.96S
LE MARS *      CLOUDY    61  59  94 N7        30.02S
ORANGE CITY *  CLOUDY    61  57  88 NE8       30.02S
SHELDON *      CLOUDY    59  57  94 NE8       30.01S
SIOUX CITY     CLOUDY    62  57  83 N12       30.01R
6HR MIN TEMP:  62; 6HR MAX TEMP:  65;

SPENCER          N/A     58  55  90 N7        30.01R
6HR MIN TEMP:  59; 6HR MAX TEMP:  61;

STORM LAKE *   CLOUDY    59  59 100 N12       30.00R FOG
$$

IAZ055>058-069>071-079>083-090>094-290700-
   SOUTHWEST IOWA

CITY           SKY/WX    TMP DP  RH WIND       PRES   REMARKS
ATLANTIC *     CLOUDY    64  64 100 N7        29.94S
AUDUBON *      FOG       63  59  88 N8        29.97R VSB 1
CLARINDA *     CLOUDY    68  68 100 CALM      29.96R
COUNCIL BLFS * CLOUDY    63  63 100 N8        29.97R FOG
CRESTON *      CLOUDY    68  68 100 NW6       29.94F
HARLAN  *      CLOUDY    63 N/A N/A N9        30.00R FOG
LAMONI         CLOUDY    71  67  87 S6        29.93S
6HR MIN TEMP:  71; 6HR MAX TEMP:  76;

RED OAK *      CLOUDY    66  66 100 CALM      29.94F FOG
SHENANDOAH *   CLOUDY    66  64  94 NW5       29.95F
$$

IAZ047>049-059>061-072>074-084-290700-
   CENTRAL IOWA

CITY           SKY/WX    TMP DP  RH WIND       PRES   REMARKS
AMES           CLOUDY    65  65 100 NW6       29.91F FOG
6HR MIN TEMP:  65; 6HR MAX TEMP:  68; 6HR PCP:  0.03;

ANKENY *       CLOUDY    70  70 100 CALM      29.90S
CHARITON *     CLOUDY    70  66  88 S9        29.93S
DES MOINES     CLOUDY    71  67  87 S8        29.90F
6HR MIN TEMP:  71; 6HR MAX TEMP:  74; 6HR PCP: TRACE;

GRINNELL*      CLOUDY    66  64  94 S8        29.92F
KNOXVILLE *    CLOUDY    70  66  88 S8        29.91S
MARSHALLTOWN   CLOUDY    66  65  96 S8        29.91S
6HR MIN TEMP:  65; 6HR MAX TEMP:  66; 6HR PCP:  0.09;

PELLA *        MOCLDY    69  69 100 S6        29.93S
PERRY *        CLOUDY    64  64 100 N7        29.93S FOG
$$

IAZ004>006-015-016-023>025-035-036-290700-
   NORTH CENTRAL IOWA

CITY           SKY/WX    TMP DP  RH WIND       PRES   REMARKS
ALGONA *       CLOUDY    59  59 100 N8        29.99R FOG
CLARION *      CLOUDY    61  59  94 NE7       29.96R FOG
ESTHERVILLE    CLOUDY    58  56  93 NE9       30.00S
6HR MIN TEMP:  57; 6HR MAX TEMP:  60;

FORT DODGE *   CLOUDY    61  57  88 N6        29.97R
MASON CITY     CLOUDY    60  59  96 E7        29.98R
6HR MIN TEMP:  59; 6HR MAX TEMP:  60; 6HR PCP:  0.04;

FOREST CITY *  CLOUDY    59  59 100 NE3       29.98S
IOWA FALLS *   CLOUDY    63  63 100 N3        29.94S FOG
$$

IAZ007>011-017>019-026>030-037>042-050>054-066-290700-
   NORTHEAST IOWA

CITY           SKY/WX    TMP DP  RH WIND       PRES   REMARKS
CEDAR RAPIDS   LGT RAIN  65  65 100 S8        29.94S
6HR MIN TEMP:  65; 6HR MAX TEMP:  65;

CHARLES CITY * CLOUDY    61  61 100 E12       29.96S FOG
CLINTON *      CLOUDY    64  63  94 SE16      30.02F
DECORAH *      CLOUDY    61  61 100 E10G17    29.96F
DUBUQUE        LGT RAIN  64  63  96 S16G26    29.97S FOG
6HR MIN TEMP:  64; 6HR MAX TEMP:  65; 6HR PCP:  0.95;

MONTICELLO *   CLOUDY    66  64  94 SE12G18   29.95S FOG
OELWEIN *      LGT RAIN  64  64 100 E5        29.95F
WATERLOO       CLOUDY    65  64  97 SE5       29.92S FOG
6HR MIN TEMP:  64; 6HR MAX TEMP:  66; 6HR PCP:  0.63;

$$

IAZ064-065-067-068-078-290700-
   EAST CENTRAL IOWA

CITY           SKY/WX    TMP DP  RH WIND       PRES   REMARKS
DAVENPORT      LGT RAIN  66  63  90 SE9       30.00F
6HR MIN TEMP:  65; 6HR MAX TEMP:  70; 6HR PCP:  0.26;

IOWA CITY      LGT RAIN  66  66 100 SE7       29.96S
6HR MIN TEMP:  65; 6HR MAX TEMP:  70; 6HR PCP:  1.15;

MT. PLEASANT * CLOUDY    70  61  72 S7        29.96S
MUSCATINE *    CLOUDY    68  63  83 SE10      29.96S
QUAD CITIES    CLOUDY    66  62  87 E8        29.99F
6HR MIN TEMP:  66; 6HR MAX TEMP:  71; 6HR PCP:  0.07;

$$

IAZ062-063-075>077-085>089-095>099-290700-
   SOUTHEAST IOWA

CITY           SKY/WX    TMP DP  RH WIND       PRES   REMARKS
BURLINGTON     CLOUDY    70  64  81 S10       29.97F
6HR MIN TEMP:  70; 6HR MAX TEMP:  72; 6HR PCP: TRACE;

FAIRFIELD *    CLOUDY    70  63  78 S7        29.95R
FORT MADISON * CLOUDY    68  64  88 S7        29.98F
KEOKUK *       CLOUDY    72  64  78 S8        29.96S
OSKALOOSA *    CLOUDY    67  65  93 S7        29.93F
CENTERVILLE *  CLOUDY    68  66  94 S7        29.96R
OTTUMWA        CLOUDY    69  66  90 S7        29.93R
6HR MIN TEMP:  69; 6HR MAX TEMP:  71; 6HR PCP:  0.05;

WASHINGTON *     N/A    N/A N/A N/A MISG        N/A
$$

ABBREVIATIONS USED IN REMARKS
   TC - TEMPERATURES IN CELSIUS
  WCI - WIND CHILL INDEX
   HX - HEAT INDEX
  VSB - VISIBILITY
$$



USA.gov is the U.S. government's official web portal to all federal, state and local government web resources and services.